GW5162 Weather Reports


time (UTC)temp
F
wind
direction
speed
knots
gust
knots
rain 1hr
in
rain 24hr
in
rain mn
in
humidity
%
barometer
mb
20260906220042 90 196 4.3 5.2 0.00 0.00 0.00 34 1015.1
20260906215540 91 135 2.6 2.6 0.00 0.00 0.00 32 1015.2
20260906215038 91 170 0.9 0.9 0.00 0.00 0.00 32 1015.2
20260906214532 92 192 0.9 1.7 0.00 0.00 0.00 32 1015.3
20260906214027 92 136 0.9 0.9 0.00 0.00 0.00 31 1015.3
20260906213526 91 153 2.6 2.6 0.00 0.00 0.00 32 1015.5
20260906213021 90 192 2.6 2.6 0.00 0.00 0.00 32 1015.4
20260906212514 92 98 2.6 4.3 0.00 0.00 0.00 31 1015.3
20260906212010 90 172 2.6 2.6 0.00 0.00 0.00 33 1015.8
20260906211504 90 112 2.6 2.6 0.00 0.00 0.00 33 1015.7
20260906211000 90 0 0.0 0.0 0.00 0.00 0.00 34 1015.8
20260906210454 91 152 2.6 2.6 0.00 0.00 0.00 32 1015.9
20260906205948 88 173 0.9 0.9 0.00 0.00 0.00 34 1015.8
20260906205444 88 157 0.9 2.6 0.00 0.00 0.00 34 1016.1
20260906204940 88 161 0.9 1.7 0.00 0.00 0.00 32 1016.0
20260906204440 88 186 0.9 1.7 0.00 0.00 0.00 33 1016.1
20260906203938 89 189 0.9 1.7 0.00 0.00 0.00 34 1016.1
20260906203434 88 171 0.9 0.9 0.00 0.00 0.00 35 1016.2
20260906202932 88 203 2.6 4.3 0.00 0.00 0.00 37 1016.1
20260906202431 89 145 2.6 2.6 0.00 0.00 0.00 36 1016.2
20260906201926 89 343 1.7 1.7 0.00 0.00 0.00 32 1016.4
20260906201420 90 33 0.9 1.7 0.00 0.00 0.00 32 1016.5
20260906200915 89 353 1.7 1.7 0.00 0.00 0.00 31 1016.5
20260906200412 89 112 1.7 1.7 0.00 0.00 0.00 32 1016.6
20260906195911 90 97 2.6 2.6 0.00 0.00 0.00 33 1016.5
20260906195408 90 184 0.9 1.7 0.00 0.00 0.00 33 1016.7
20260906194903 87 110 0.9 1.7 0.00 0.00 0.00 35 1016.6
20260906194359 88 56 0.9 0.9 0.00 0.00 0.00 37 1016.7
20260906193854 88 140 0.0 0.9 0.00 0.00 0.00 38 1016.7
20260906193349 90 112 0.9 0.9 0.00 0.00 0.00 37 1016.7
20260906192845 90 60 0.0 0.0 0.00 0.00 0.00 36 1016.9
20260906192345 87 170 0.9 0.9 0.00 0.00 0.00 38 1016.7
20260906191844 88 124 0.0 0.0 0.00 0.00 0.00 37 1017.0
20260906191339 90 57 1.7 1.7 0.00 0.00 0.00 40 1017.2
20260906190838 88 303 0.9 1.7 0.00 0.00 0.00 41 1017.2
20260906190338 87 115 0.9 0.9 0.00 0.00 0.00 42 1017.2
20260906185833 88 155 0.0 0.0 0.00 0.00 0.00 40 1017.4
20260906185332 87 30 0.0 0.0 0.00 0.00 0.00 41 1017.3
20260906184827 85 103 0.0 0.9 0.00 0.00 0.00 44 1017.6
20260906184327 85 348 3.5 4.3 0.00 0.00 0.00 44 1017.7
20260906183822 85 75 0.9 0.9 0.00 0.00 0.00 42 1017.6
20260906183318 86 108 4.3 5.2 0.00 0.00 0.00 41 1018.0
20260906182818 85 95 0.9 0.9 0.00 0.00 0.00 43 1018.0
20260906182314 85 90 0.0 0.0 0.00 0.00 0.00 44 1018.0
20260906181809 84 8 0.9 0.9 0.00 0.00 0.00 44 1018.2
20260906181305 83 105 0.9 0.9 0.00 0.00 0.00 46 1018.3
20260906180800 82 131 2.6 2.6 0.00 0.00 0.00 46 1018.3
20260906180255 83 116 2.6 2.6 0.00 0.00 0.00 44 1018.6
20260906175752 82 258 0.0 0.9 0.00 0.00 0.00 46 1018.4
20260906175249 82 342 0.9 0.9 0.00 0.00 0.00 47 1018.7
20260906174747 83 84 1.7 1.7 0.00 0.00 0.00 46 1019.0
20260906174246 81 32 1.7 1.7 0.00 0.00 0.00 49 1018.9
20260906173741 80 338 1.7 1.7 0.00 0.00 0.00 52 1019.1
20260906173237 80 152 0.9 0.9 0.00 0.00 0.00 51 1019.0
20260906172736 80 72 0.9 1.7 0.00 0.00 0.00 53 1019.4
20260906172232 80 338 2.6 2.6 0.00 0.00 0.00 56 1019.4
20260906171732 79 125 0.9 0.9 0.00 0.00 0.00 55 1019.6
20260906171227 78 5 0.9 0.9 0.00 0.00 0.00 57 1019.5
20260906170723 79 135 2.6 2.6 0.00 0.00 0.00 57 1019.4
20260906170218 78 245 0.9 0.9 0.00 0.00 0.00 57 1019.5
20260906165714 78 179 4.3 5.2 0.00 0.00 0.00 57 1019.5
20260906165209 78 268 0.9 0.9 0.00 0.00 0.00 56 1019.7
20260906164708 79 97 1.7 2.6 0.00 0.00 0.00 55 1019.8
20260906164204 79 347 0.0 0.0 0.00 0.00 0.00 55 1019.7
20260906163659 76 220 0.0 0.0 0.00 0.00 0.00 60 1019.5
20260906163155 75 8 0.9 0.9 0.00 0.00 0.00 62 1019.8
20260906162652 75 359 0.0 0.0 0.00 0.00 0.00 62 1019.7
20260906162151 77 124 0.9 1.7 0.00 0.00 0.00 59 1019.8
20260906161647 76 97 0.9 0.9 0.00 0.00 0.00 60 1019.5
20260906161146 77 77 2.6 2.6 0.00 0.00 0.00 59 1019.7
20260906160645 75 105 0.0 0.9 0.00 0.00 0.00 60 1019.5
20260906160144 74 338 0.0 0.0 0.00 0.00 0.00 62 1019.7
20260906155642 75 84 0.9 0.9 0.00 0.00 0.00 60 1019.7
20260906155138 76 318 2.6 2.6 0.00 0.00 0.00 59 1019.7
20260906154633 74 117 0.0 0.0 0.00 0.00 0.00 61 1020.0
20260906154132 73 67 0.0 0.9 0.00 0.00 0.00 63 1019.8
20260906153632 73 336 0.9 0.9 0.00 0.00 0.00 65 1020.0
20260906153127 73 7 0.9 0.9 0.00 0.00 0.00 64 1020.0
20260906152627 73 40 0.9 0.9 0.00 0.00 0.00 65 1020.0
20260906152120 71 15 0.9 0.9 0.00 0.00 0.00 67 1019.7
20260906151615 71 82 0.0 0.9 0.00 0.00 0.00 67 1020.0
20260906151112 70 125 1.7 1.7 0.00 0.00 0.00 69 1020.1
20260906150607 70 356 0.9 0.9 0.00 0.00 0.00 70 1020.0
20260906145600 69 15 1.7 1.7 0.00 0.00 0.00 73 1020.0
20260906145055 68 94 0.0 0.0 0.00 0.00 0.00 75 1020.0
20260906144550 68 120 0.0 0.9 0.00 0.00 0.00 75 1020.0
20260906144045 68 6 0.0 0.0 0.00 0.00 0.00 74 1020.0
20260906143540 69 52 1.7 1.7 0.00 0.00 0.00 73 1020.1
20260906143037 69 48 0.0 0.0 0.00 0.00 0.00 74 1020.1
20260906142531 68 354 3.5 4.3 0.00 0.00 0.00 75 1020.0
20260906142027 67 86 2.6 4.3 0.00 0.00 0.00 77 1020.1
20260906141526 67 37 1.7 2.6 0.00 0.00 0.00 77 1020.1
20260906141021 67 21 3.5 5.2 0.00 0.00 0.00 78 1019.8
20260906140515 66 346 2.6 2.6 0.00 0.00 0.00 78 1019.8
20260906140014 66 23 0.9 1.7 0.00 0.00 0.00 79 1020.1
20260906135511 65 44 0.0 0.9 0.00 0.00 0.00 80 1020.2
20260906135007 64 53 3.5 4.3 0.00 0.00 0.00 81 1019.7
20260906134502 64 341 1.7 1.7 0.00 0.00 0.00 82 1020.0
20260906134002 63 23 0.0 0.0 0.00 0.00 0.00 83 1020.1
20260906133458 63 327 0.0 0.0 0.00 0.00 0.00 84 1020.1
20260906132954 62 0 0.0 0.9 0.00 0.00 0.00 84 1019.8
20260906132454 62 357 0.0 0.9 0.00 0.00 0.00 84 1020.0
20260906131949 62 355 0.0 0.0 0.00 0.00 0.00 85 1019.7
20260906131444 61 44 0.0 0.0 0.00 0.00 0.00 84 1019.8
20260906130940 60 53 0.0 0.0 0.00 0.00 0.00 84 1020.0
20260906130439 60 154 0.0 0.0 0.00 0.00 0.00 83 1020.0
20260906125934 60 175 0.0 0.0 0.00 0.00 0.00 83 1020.1
20260906125431 60 193 0.0 0.0 0.00 0.00 0.00 82 1019.7
20260906124925 61 160 0.0 0.0 0.00 0.00 0.00 82 1019.5
20260906124421 61 209 0.0 0.0 0.00 0.00 0.00 82 1019.7
20260906123916 61 241 0.0 0.0 0.00 0.00 0.00 81 1019.7
20260906123415 62 192 0.0 0.0 0.00 0.00 0.00 81 1019.7
20260906122915 61 194 0.0 0.0 0.00 0.00 0.00 81 1019.5
20260906122410 61 32 0.0 0.0 0.00 0.00 0.00 81 1019.7
20260906121907 61 150 0.0 0.0 0.00 0.00 0.00 81 1019.4
20260906121403 61 217 0.0 0.0 0.00 0.00 0.00 81 1019.5
20260906120859 61 287 0.0 0.0 0.00 0.00 0.00 81 1019.5
20260906120354 60 156 0.0 0.0 0.00 0.00 0.00 81 1019.5
20260906115850 60 285 0.0 0.0 0.00 0.00 0.00 81 1019.1
20260906115345 60 300 0.0 0.0 0.00 0.00 0.00 80 1019.4
20260906114844 60 302 0.0 0.0 0.00 0.00 0.00 80 1019.3
20260906114340 60 301 0.0 0.0 0.00 0.00 0.00 79 1019.1
20260906113841 60 302 0.0 0.0 0.00 0.00 0.00 78 1019.4
20260906113340 61 302 0.0 0.0 0.00 0.00 0.00 78 1019.4
20260906112835 61 302 0.0 0.0 0.00 0.00 0.00 77 1019.4
20260906112331 61 302 0.0 0.0 0.00 0.00 0.00 77 1019.3
20260906111826 60 251 0.0 0.0 0.00 0.00 0.00 78 1019.3
20260906111325 60 165 0.0 0.0 0.00 0.00 0.00 78 1019.3
20260906110821 60 165 0.0 0.0 0.00 0.00 0.00 77 1019.0
20260906110316 60 182 0.0 0.0 0.00 0.00 0.00 77 1019.1
20260906105815 60 262 0.0 0.0 0.00 0.00 0.00 76 1019.1
20260906105311 61 286 0.0 0.0 0.00 0.00 0.00 76 1019.4
20260906104806 61 261 0.0 0.0 0.00 0.00 0.00 75 1019.3
20260906104306 61 180 0.0 0.0 0.00 0.00 0.00 73 1019.6
20260906103804 62 251 0.0 0.0 0.00 0.00 0.00 72 1019.5
20260906103303 63 188 0.0 0.0 0.00 0.00 0.00 70 1019.4
20260906102759 63 75 0.0 0.0 0.00 0.00 0.00 70 1019.5
20260906102257 64 7 0.0 0.0 0.00 0.00 0.00 69 1019.1
20260906101753 64 8 0.9 0.9 0.00 0.00 0.00 68 1019.3
20260906101248 65 83 0.0 0.0 0.00 0.00 0.00 67 1019.4
20260906100743 65 324 0.0 0.0 0.00 0.00 0.00 66 1019.1
20260906100242 64 29 0.0 0.9 0.00 0.00 0.00 66 1019.4
20260906095738 64 108 0.0 0.0 0.00 0.00 0.00 66 1019.4
20260906095233 65 140 0.0 0.0 0.00 0.00 0.00 65 1019.1
20260906094732 65 34 0.0 0.0 0.00 0.00 0.00 65 1019.3
20260906094227 65 92 0.0 0.0 0.00 0.00 0.00 65 1019.3
20260906093724 66 113 0.0 0.0 0.00 0.00 0.00 64 1019.0
20260906093219 66 133 0.0 0.0 0.00 0.00 0.00 63 1019.3
20260906092715 66 13 0.9 0.9 0.00 0.00 0.00 63 1019.1
20260906092214 67 43 0.0 0.0 0.00 0.00 0.00 62 1018.8
20260906091711 67 7 2.6 2.6 0.00 0.00 0.00 62 1018.8
20260906091207 67 20 0.0 0.0 0.00 0.00 0.00 60 1018.3
20260906090703 68 28 1.7 2.6 0.00 0.00 0.00 59 1018.2
20260906090202 68 39 1.7 1.7 0.00 0.00 0.00 59 1018.3
20260906085701 68 4 0.9 1.7 0.00 0.00 0.00 58 1018.3
20260906085200 68 15 0.9 1.7 0.00 0.00 0.00 58 1018.3
20260906084655 68 14 2.6 4.3 0.00 0.00 0.00 57 1018.2
20260906084154 68 332 1.7 2.6 0.00 0.00 0.00 57 1018.4
20260906083649 69 60 0.9 1.7 0.00 0.00 0.00 57 1018.4
20260906083145 69 39 0.0 0.0 0.00 0.00 0.00 57 1018.6
20260906082640 69 7 1.7 1.7 0.00 0.00 0.00 56 1018.4
20260906082136 69 37 0.0 0.0 0.00 0.00 0.00 56 1018.2
20260906081631 69 28 0.0 0.9 0.00 0.00 0.00 56 1018.4
20260906081126 70 342 1.7 1.7 0.00 0.00 0.00 56 1018.4
20260906080623 70 16 0.0 0.9 0.00 0.00 0.00 55 1018.4
20260906080119 70 18 0.9 0.9 0.00 0.00 0.00 54 1018.3
20260906075612 70 11 0.9 1.7 0.00 0.00 0.00 54 1018.6
20260906075107 70 355 0.0 0.0 0.00 0.00 0.00 53 1018.4
20260906074602 70 318 0.0 0.9 0.00 0.00 0.00 53 1018.6
20260906074101 71 359 1.7 1.7 0.00 0.00 0.00 51 1018.6
20260906073556 71 26 1.7 1.7 0.00 0.00 0.00 50 1018.4
20260906073052 71 351 0.9 0.9 0.00 0.00 0.00 50 1018.4
20260906072546 71 322 0.0 0.9 0.00 0.00 0.00 49 1018.6
20260906072043 71 36 0.0 0.9 0.00 0.00 0.00 48 1018.4
20260906071538 71 45 0.0 0.9 0.00 0.00 0.00 48 1018.2
20260906071033 71 24 0.9 1.7 0.00 0.00 0.00 49 1018.3
20260906070530 72 106 0.0 0.0 0.00 0.00 0.00 48 1018.4
20260906070025 71 10 1.7 1.7 0.00 0.00 0.00 47 1018.6
20260906065524 69 84 0.0 0.0 0.00 0.00 0.00 50 1018.4
20260906065020 69 65 0.0 0.0 0.00 0.00 0.00 51 1018.2
20260906064516 70 254 0.0 0.0 0.00 0.00 0.00 51 1018.1
20260906064011 70 274 0.0 0.0 0.00 0.00 0.00 50 1018.1
20260906063506 71 9 0.0 0.0 0.00 0.00 0.00 50 1018.4
20260906063001 72 307 0.0 0.0 0.00 0.00 0.00 50 1018.4
20260906062456 72 336 0.9 1.7 0.00 0.00 0.00 48 1018.3
20260906061951 71 62 0.0 0.0 0.00 0.00 0.00 49 1018.4
20260906061447 71 0 0.9 1.7 0.00 0.00 0.00 52 1018.6
20260906060942 71 338 0.0 0.0 0.00 0.00 0.00 52 1018.4
20260906060438 71 4 1.7 1.7 0.00 0.00 0.00 51 1018.6
20260906055934 70 20 0.9 0.9 0.00 0.00 0.00 51 1018.9
20260906055430 69 36 0.9 0.9 0.00 0.00 0.00 52 1018.8
20260906054925 69 308 0.0 0.0 0.00 0.00 0.00 52 1018.8
20260906054421 68 296 0.0 0.0 0.00 0.00 0.00 55 1018.7
20260906053917 70 267 0.9 0.9 0.00 0.00 0.00 55 1018.9
20260906053412 72 209 0.0 0.9 0.00 0.00 0.00 50 1018.9
20260906052907 73 159 0.0 0.0 0.00 0.00 0.00 46 1018.4
20260906052404 73 132 0.0 0.0 0.00 0.00 0.00 45 1018.4
20260906051900 73 121 1.7 1.7 0.00 0.00 0.00 44 1018.6
20260906051400 73 112 0.9 0.9 0.00 0.00 0.00 45 1018.2
20260906050856 74 111 1.7 1.7 0.00 0.00 0.00 45 1018.4
20260906050350 74 141 0.9 1.7 0.00 0.00 0.00 44 1018.3
20260906045849 73 18 0.0 0.0 0.00 0.00 0.00 45 1018.1
20260906045344 72 91 0.9 0.9 0.00 0.00 0.00 47 1018.2
20260906044840 71 70 0.0 0.0 0.00 0.00 0.00 48 1018.4
20260906044335 71 24 0.0 0.0 0.00 0.00 0.00 48 1018.3
20260906043831 72 17 0.0 0.0 0.00 0.00 0.00 48 1018.1
20260906043327 73 344 0.0 0.0 0.00 0.00 0.00 47 1018.3
20260906042826 73 214 0.0 0.0 0.00 0.00 0.00 45 1018.3
20260906042325 74 172 1.7 2.6 0.00 0.00 0.00 44 1018.2
20260906041821 74 201 0.9 1.7 0.00 0.00 0.00 44 1018.0
20260906041317 74 86 0.0 0.0 0.00 0.00 0.00 44 1017.4
20260906040812 75 48 0.0 0.0 0.00 0.00 0.00 43 1017.6
20260906040307 75 79 0.0 0.9 0.00 0.00 0.00 43 1017.4
20260906035802 76 21 0.0 0.0 0.00 0.00 0.00 42 1017.4
20260906035258 76 95 0.0 0.9 0.00 0.00 0.00 41 1017.3
20260906034758 75 28 0.9 0.9 0.00 0.00 0.00 42 1017.0
20260906034257 75 322 0.0 0.0 0.00 0.00 0.00 46 1017.2
20260906033753 76 303 0.9 0.9 0.00 0.00 0.00 44 1017.5
20260906033253 77 330 0.0 0.9 0.00 0.00 0.00 40 1017.2
20260906032749 77 343 1.7 2.6 0.00 0.00 0.00 40 1017.4
20260906032249 78 284 0.0 0.0 0.00 0.00 0.00 39 1017.3
20260906031744 78 355 0.9 0.9 0.00 0.00 0.00 37 1016.9
20260906031241 78 29 1.7 4.3 0.00 0.00 0.00 37 1017.0
20260906030740 78 37 2.6 4.3 0.00 0.00 0.00 37 1017.0
20260906030235 78 15 0.9 5.2 0.00 0.00 0.00 37 1016.8
20260906025734 80 70 0.0 0.0 0.00 0.00 0.00 36 1016.6
20260906025229 80 25 0.9 1.7 0.00 0.00 0.00 35 1016.6
20260906024728 80 30 1.7 1.7 0.00 0.00 0.00 34 1016.5
20260906024227 81 38 0.9 0.9 0.00 0.00 0.00 33 1016.6
20260906023723 82 8 1.7 1.7 0.00 0.00 0.00 33 1016.6
20260906023219 81 21 0.9 0.9 0.00 0.00 0.00 32 1016.4
20260906022714 80 3 0.9 0.9 0.00 0.00 0.00 33 1016.5
20260906022209 80 147 0.0 0.0 0.00 0.00 0.00 35 1016.7
20260906021705 80 15 0.0 0.0 0.00 0.00 0.00 34 1016.6
20260906021203 81 122 0.0 0.9 0.00 0.00 0.00 34 1016.4
20260906020653 81 256 1.7 1.7 0.00 0.00 0.00 34 1016.5
20260906020148 81 264 0.0 0.0 0.00 0.00 0.00 34 1016.4
20260906015647 81 290 0.9 1.7 0.00 0.00 0.00 33 1016.2
20260906015146 80 322 1.7 1.7 0.00 0.00 0.00 34 1016.2
20260906014646 80 320 0.9 1.7 0.00 0.00 0.00 34 1016.1
20260906014142 80 308 1.7 1.7 0.00 0.00 0.00 34 1016.0
20260906013638 80 243 0.0 0.0 0.00 0.00 0.00 34 1015.8
20260906013133 81 296 1.7 1.7 0.00 0.00 0.00 34 1015.9
20260906012633 82 324 0.9 0.9 0.00 0.00 0.00 33 1015.8
20260906012128 82 302 2.6 2.6 0.00 0.00 0.00 33 1016.0
20260906011624 83 350 2.6 2.6 0.00 0.00 0.00 32 1015.9
20260906011118 83 318 3.5 6.1 0.00 0.00 0.00 32 1015.9
20260906010614 83 349 4.3 5.2 0.00 0.00 0.00 30 1015.8
20260906010110 84 296 4.3 5.2 0.00 0.00 0.00 31 1016.0
20260906005609 84 1 2.6 4.3 0.00 0.00 0.00 31 1016.2
20260906005109 84 2 0.9 1.7 0.00 0.00 0.00 31 1016.2
20260906004608 85 297 6.1 7.8 0.00 0.00 0.00 30 1016.4
20260906004103 85 104 2.6 4.3 0.00 0.00 0.00 30 1016.1
20260906003558 85 310 1.7 2.6 0.00 0.00 0.00 30 1016.4
20260906003054 86 292 2.6 5.2 0.00 0.00 0.00 29 1016.4
20260906002548 87 294 2.6 4.3 0.00 0.00 0.00 27 1016.2
20260906002043 87 296 0.9 1.7 0.00 0.00 0.00 27 1015.8
20260906001538 86 291 1.7 2.6 0.00 0.00 0.00 27 1016.0
20260906001032 85 330 0.9 0.9 0.00 0.00 0.00 30 1016.2
20260906000529 86 270 0.9 0.9 0.00 0.00 0.00 29 1016.1
20260906000024 86 254 1.7 4.3 0.00 0.00 0.00 29 1016.4
20260905235523 86 306 2.6 4.3 0.00 0.00 0.00 29 1016.0
20260905235019 86 282 0.9 1.7 0.00 0.00 0.00 29 1016.0
20260905234515 87 299 0.0 0.9 0.00 0.00 0.00 29 1016.1
20260905234014 87 281 1.7 2.6 0.00 0.00 0.00 29 1016.1
20260905233510 88 291 1.7 1.7 0.00 0.00 0.00 29 1015.9
20260905233009 89 282 0.0 0.9 0.00 0.00 0.00 30 1016.0
20260905232505 90 225 0.0 0.0 0.00 0.00 0.00 29 1016.1
20260905232000 90 242 0.0 0.0 0.00 0.00 0.00 28 1016.0
20260905231455 91 268 0.9 0.9 0.00 0.00 0.00 26 1015.7
20260905230946 92 321 0.0 0.9 0.00 0.00 0.00 21 1015.8
20260905230444 92 307 0.9 0.9 0.00 0.00 0.00 21 1015.5
20260905225942 93 27 0.0 0.0 0.00 0.00 0.00 22 1015.8
20260905225438 91 5 0.0 0.0 0.00 0.00 0.00 21 1015.4
20260905224933 92 36 0.0 0.0 0.00 0.00 0.00 21 1015.7
20260905224428 93 29 0.0 0.0 0.00 0.00 0.00 21 1015.7
20260905223922 94 352 1.7 2.6 0.00 0.00 0.00 20 1015.7
20260905223421 93 339 2.6 2.6 0.00 0.00 0.00 21 1015.7
20260905222920 94 310 1.7 1.7 0.00 0.00 0.00 20 1015.5
20260905222419 94 354 2.6 2.6 0.00 0.00 0.00 20 1015.5
20260905221916 93 106 1.7 2.6 0.00 0.00 0.00 21 1015.8
20260905221412 92 324 3.5 4.3 0.00 0.00 0.00 21 1015.7
20260905220908 93 26 3.5 4.3 0.00 0.00 0.00 20 1015.8